Flag for Switzerland Weather past 2 weeks in Vernier, Geneva, Switzerland

Now
95 °F

Sunny.


Feels Like: 94 °F
Forecast: 64 / 93 °F
Wind: 6 mph from Southwest

Location: Geneva Cointrin Airport

Current Time: Jul 3, 2015 at 7:33:55 PM

Latest Report: Jul 3, 2015 at 7:20 PM


Visibility: 10 mi

Pressure: 30.18 "Hg

Humidity: 28%

Dew point: 57 °F

Location of VernierLocation

Historic Weather in Vernier — Graph

°F

Vernier temperature yesterday

Maximum temperature yesterday: 97 °F (at 4:50 PM)
Minimum temperature yesterday: 68 °F (at 4:20 AM)
Average temperature yesterday: 83 °F

Past Weeks' High & Low Weather Summary

 TemperatureHumidityPressure
High97 °F (Jul 2, 4:50 PM)100% (Jun 18, 11:20 PM)30.27 "Hg (Jun 18, 11:20 PM)
Low48 °F (Jun 24, 3:50 AM)22% (Jun 28, 6:50 PM)29.83 "Hg (Jun 22, 8:50 PM)
Average71 °F56%30.12 "Hg
* Reported Jun 18 6:20 PM — Jul 3 6:20 PM, Vernier, Weather by CustomWeather, © 2015

Note: Actual official high and low records may vary slightly from our data, if they occured in-between our weather recording intervals... More about our weather records

Advertising

Vernier weather history for previous 24 hours

 ConditionsComfort  
Time TempWeatherWind HumidityBarometerVisibility
6:20 PM
Fri, Jul 3
93 °FPassing clouds.5 mph32%30.18 "HgN/A
5:50 PM97 °FScattered clouds.5 mph27%30.18 "HgN/A
5:20 PM95 °FScattered clouds.3 mph28%30.18 "HgN/A
4:50 PM95 °FScattered clouds.5 mph30%30.18 "HgN/A
4:20 PM97 °FScattered clouds.5 mph28%30.18 "HgN/A
3:50 PM95 °FScattered clouds.6 mph34%30.21 "HgN/A
3:20 PM93 °FBroken clouds.3 mph32%30.21 "HgN/A
2:50 PM95 °FBroken clouds.6 mph32%30.21 "HgN/A
2:20 PM93 °FBroken clouds.6 mph32%30.24 "HgN/A
1:50 PM90 °FBroken clouds.5 mph38%30.24 "HgN/A
1:20 PM88 °FBroken clouds.7 mph38%30.24 "HgN/A
12:50 PM88 °FScattered clouds.6 mph38%30.27 "HgN/A
12:20 PM88 °FScattered clouds.5 mph38%30.27 "HgN/A
11:50 AM86 °FPassing clouds.3 mph43%30.27 "HgN/A
11:20 AM82 °FScattered clouds.5 mph51%30.27 "HgN/A
10:50 AM81 °FPartly sunny.3 mph54%30.27 "HgN/A
10:20 AM81 °FPartly sunny.2 mph51%30.27 "HgN/A
9:50 AM77 °FPartly sunny.8 mph65%30.24 "HgN/A
9:20 AM79 °FPartly sunny.1 mph54%30.27 "HgN/A
8:50 AM77 °FScattered clouds.1 mph61%30.27 "HgN/A
8:20 AM75 °FScattered clouds.2 mph65%30.27 "HgN/A
7:50 AM73 °FSunny.2 mph65%30.27 "Hg10 mi
7:20 AM70 °FPassing clouds.1 mph69%30.27 "HgN/A
6:50 AM68 °FPassing clouds.1 mph73%30.27 "HgN/A
6:20 AM66 °FPassing clouds.1 mph78%30.27 "HgN/A
5:50 AM66 °FPassing clouds.1 mph78%30.24 "HgN/A
5:20 AM66 °FPassing clouds.1 mph78%30.24 "HgN/A
4:50 AM68 °FClear.2 mph78%30.24 "Hg10 mi
4:20 AM70 °FClear.2 mph69%30.24 "Hg10 mi
3:50 AM70 °FClear.1 mph73%30.24 "Hg10 mi
2:50 AM70 °FClear.1 mph73%30.24 "Hg10 mi
2:20 AM70 °FClear.1 mph73%30.24 "Hg10 mi
1:20 AM72 °FClear.1 mph69%30.24 "Hg10 mi
12:50 AM73 °FClear.1 mph65%30.24 "Hg10 mi
12:20 AM75 °FClear.3 mph61%30.24 "Hg10 mi
11:50 PM
Thu, Jul 2
79 °FPassing clouds.5 mph54%30.24 "HgN/A
11:20 PM81 °FClear.5 mph51%30.24 "Hg10 mi
10:50 PM82 °FClear.6 mph45%30.24 "Hg10 mi
10:20 PM84 °FSunny.7 mph43%30.21 "Hg10 mi
9:50 PM86 °FScattered clouds.10 mph40%30.21 "HgN/A
9:20 PM86 °FPassing clouds.8 mph40%30.18 "HgN/A
8:50 PM88 °FPassing clouds.9 mph38%30.18 "HgN/A
8:20 PM91 °FSunny.14 mph32%30.18 "Hg10 mi
7:50 PM93 °FSunny.14 mph28%30.15 "Hg10 mi
7:20 PM93 °FSunny.15 mph26%30.15 "Hg10 mi
Weather by CustomWeather, © 2015

See weather overviewHow to use our weather pages